Owensboro, KY

6:25 PM CDT on March 22, 2017 (GMT -0500)
Owensboro-Daviess County

Weather History for KOWB - May, 2014

Change the Weather History Date:

Monday, May 12, 2014

  Actual Average Record
Temperature  
Mean Temperature 77 °F -  
Max Temperature 86 °F 76 °F 89 °F (1935)
Min Temperature 68 °F 55 °F 38 °F (1940)
Cooling Degree Days 12    
Growing Degree Days 27 (Base 50)    
Moisture  
Dew Point 68 °F    
Average Humidity 74    
Maximum Humidity 93    
Minimum Humidity 56    
Precipitation  
Precipitation 0.00 in - - ()
Sea Level Pressure  
Sea Level Pressure 30.01 in    
Wind  
Wind Speed 10 mph (South)    
Max Wind Speed 18 mph    
Max Gust Speed -    
Visibility 10 miles    
Events      
Averages and records for this station are not official NWS values.
T = Trace of Precipitation, MM = Missing Value Source: NWS Daily Summary

Daily Weather History Graph

Daily Weather History Graph

Search for Another Location

Airport or City:

Trip Planner

Search our weather history database for the weather conditions in past years. The results will help you decide how hot, cold, wet, or windy it might be!

Date:

Astronomy

May. 12, 2014 Rise Set
Actual Time 5:41 AM CDT 7:49 PM CDT
Civil Twilight 5:12 AM CDT 8:18 PM CDT
Nautical Twilight 4:36 AM CDT 8:53 PM CDT
Astronomical Twilight 3:58 AM CDT 9:32 PM CDT
Moon 5:48 PM CDT (5/12) 4:17 AM CDT (5/12)
Length of Visible Light 15h 05m
Length of Day
14h 07m
Waxing Gibbous, 95% of the Moon is Illuminated
May 12
Waxing Gibbous
May 14
Full
May 21
Last Quarter
May 28
New
Jun 5
First Quarter

Hourly Weather History & Observations

Time (CDT) Temp. Heat Index Dew Point Humidity Pressure Visibility Wind Dir Wind Speed Gust Speed Precip Events Conditions
12:56 AM 70.9 °F - 68.0 °F 91% 30.01 in 10.0 mi SSE 5.8 mph - N/A   Clear
1:56 AM 70.9 °F - 68.0 °F 91% 30.00 in 10.0 mi South 6.9 mph - N/A   Clear
2:56 AM 70.0 °F - 66.9 °F 90% 29.99 in 10.0 mi South 5.8 mph - N/A   Clear
3:56 AM 68.9 °F - 66.9 °F 93% 29.99 in 10.0 mi SSE 5.8 mph - N/A   Clear
4:56 AM 68.9 °F - 66.9 °F 93% 30.00 in 10.0 mi South 6.9 mph - N/A   Clear
5:56 AM 68.9 °F - 66.9 °F 93% 30.02 in 10.0 mi South 3.5 mph - N/A   Clear
6:56 AM 72.0 °F - 68.0 °F 87% 30.04 in 10.0 mi South 8.1 mph - N/A   Clear
7:56 AM 73.9 °F - 68.0 °F 82% 30.05 in 10.0 mi South 11.5 mph - N/A   Clear
9:56 AM 79.9 °F - 68.9 °F 69% 30.05 in 10.0 mi SSW 15.0 mph - N/A   Clear
10:56 AM 82.9 °F 87.0 °F 70.0 °F 65% 30.06 in 10.0 mi SSW 17.3 mph - N/A   Scattered Clouds
11:56 AM 83.8 °F 88.1 °F 70.0 °F 63% 30.06 in 10.0 mi SW 16.1 mph - N/A   Mostly Cloudy
12:56 PM 84.9 °F 89.4 °F 70.0 °F 61% 30.04 in 10.0 mi SW 15.0 mph - N/A   Mostly Cloudy
1:56 PM 84.9 °F 89.4 °F 70.0 °F 61% 30.03 in 10.0 mi South 18.4 mph - N/A   Mostly Cloudy
2:56 PM 86.0 °F 89.7 °F 68.9 °F 56% 30.01 in 10.0 mi SSW 18.4 mph - N/A   Mostly Cloudy
3:56 PM 83.8 °F 87.0 °F 68.0 °F 59% 30.00 in 10.0 mi South 17.3 mph - N/A   Scattered Clouds
4:56 PM 84.9 °F 88.2 °F 68.0 °F 57% 29.99 in 10.0 mi South 17.3 mph - N/A   Scattered Clouds
5:56 PM 83.8 °F 86.5 °F 66.9 °F 57% 30.00 in 10.0 mi SSW 13.8 mph - N/A   Partly Cloudy
6:56 PM 79.9 °F - 66.9 °F 64% 29.98 in 10.0 mi South 9.2 mph - N/A   Clear
7:56 PM 77.9 °F - 66.9 °F 69% 29.95 in 10.0 mi SSE 9.2 mph - N/A   Clear
8:56 PM 77.9 °F - 66.9 °F 69% 29.95 in 10.0 mi SSE 11.5 mph - N/A   Clear
9:56 PM 75.9 °F - 66.9 °F 74% 29.99 in 10.0 mi SSW 9.2 mph - N/A   Clear
10:56 PM 73.9 °F - 66.9 °F 79% 30.00 in 10.0 mi South 6.9 mph - N/A   Clear
11:56 PM 72.9 °F - 66.9 °F 82% 30.00 in 10.0 mi South 6.9 mph - N/A   Clear